Regional Weather Roundup
Issued by NWS Cleveland, OH

Home | Current Version | Previous Version | Text Only | Print | Product List | Glossary Off
Versions: 1 2 3 4 5 6 7 8 9 10 11 12 13 14 15 16 17 18 19 20 21 22 23 24 25 26 27 28 29 30 31 32 33 34 35 36 37 38 39 40 41 42 43 44 45 46 47 48 49 50

000
ASUS41 KCLE 051600
RWRCLE
OHIO REGIONAL WEATHER ROUNDUP
NATIONAL WEATHER SERVICE WILMINGTON, OH
1200 PM EDT TUE MAY 05 2015

NOTE: "FAIR" INDICATES FEW OR NO CLOUDS BELOW 12,000 FEET WITH NO
SIGNIFICANT WEATHER AND/OR OBSTRUCTIONS TO VISIBILITY.

OHZ001>008-015>018-024>027-034-035-043-044-051700-
   NORTHWEST OHIO

CITY           SKY/WX    TMP DP  RH WIND       PRES   REMARKS
DEFIANCE       CLOUDY    58  56  93 E8        30.26F FOG
FINDLAY        CLOUDY    68  61  78 N3        30.26S
TOLEDO EXPRESS LGT RAIN  54  50  86 E9        30.25F
TOLEDO EXEC    LGT RAIN  54  46  74 NE6       30.29S
LIMA           PTSUNNY   70  60  70 CALM      30.26S
$$

OHZ009>014-019>023-028>033-038-089-051700-
   NORTHEAST OHIO

CITY           SKY/WX    TMP DP  RH WIND       PRES   REMARKS
CLE-HOPKINS    CLOUDY    66  61  84 SW9       30.29R FOG
CLE-LAKEFRONT  CLOUDY    55  52  89 CALM      30.26R FOG
CUY CO. ARPT   LGT RAIN  68  64  88 S6        30.27F FOG
LORAIN-ELYRIA  LGT RAIN  65  61  87 SW7       30.27S FOG
ASHTABULA      LGT RAIN  62  60  93 S3        30.29S FOG
AKRON-CANTON   CLOUDY    69  60  73 W6        30.28S HAZE
WOOSTER        NOT AVBL
MANSFIELD      CLOUDY    67  60  78 NW3       30.28S
YOUNGSTOWN     CLOUDY    64  62  93 S5        30.29S FOG
$$

OHZ042-051>053-060>062-070>072-077>081-051700-
  SOUTHWEST OHIO

CITY           SKY/WX    TMP DP  RH WIND       PRES   REMARKS
CINC-COVINGTON MOSUNNY   79  56  45 W9        30.27F
CINC-LUNKEN    SUNNY     78  56  46 W7        30.26F
HAMILTON       SUNNY     79  56  45 SW9       30.27S
DAYTON         NOT AVBL
WRIGHT-PAT AFB NOT AVBL
DAYTON GENERAL SUNNY     76  58  53 W6        30.27S
WILMINGTON     SUNNY     76  56  49 W8        30.28S
$$

OHZ036-037-039>041-045>050-054>059-063>069-073>076-082>088-051700-
  CENTRAL AND SOUTHEAST OHIO

CITY           SKY/WX    TMP DP  RH WIND       PRES   REMARKS
COLUMBUS       MOSUNNY   71  61  70 SE5       30.28F
OSU AIRPORT    SUNNY     72  61  68 SE8       30.28S
BOLTON FIELD   SUNNY     72  63  73 SE6       30.29S
RICKENBACK AFB NOT AVBL
NEWARK         MOSUNNY   72  61  68 VRB6      30.28F
MARION         PTSUNNY   67  62  84 CALM      30.28S HAZE
LANCASTER      SUNNY     73  60  63 CALM      30.29F
ZANESVILLE     MOSUNNY   72  59  63 W6        30.30S
NEW PHILLY     CLOUDY    68  62  81 S5        30.29F
$$


USA.gov is the U.S. government's official web portal to all federal, state and local government web resources and services.